This is the latest recevied weather packets stored in our database for station/object OE9FWV. If no packets are shown the sender has not sent any weather packets the latest 10 day(s).
| Time | Temp. | Humidity | Pressure | Rain* | Wind** | Luminosity | Snow |
|---|---|---|---|---|---|---|---|
| 1777743488 | 23.89° C | 35% | 1015.5 hPa | 0 mm | - | - | - |
| 1777742286 | 24.44° C | 34% | 1015.5 hPa | 0 mm | - | - | - |
| 1777741679 | 24.44° C | 34% | 1015.6 hPa | 0 mm | - | - | - |
| 1777741074 | 24.44° C | 34% | 1015.5 hPa | 0 mm | - | - | - |
| 1777740472 | 24.44° C | 31% | 1015.7 hPa | 0 mm | - | - | - |
| 1777739872 | 24.44° C | 33% | 1015.7 hPa | 0 mm | - | - | - |
| 1777739272 | 24.44° C | 32% | 1015.9 hPa | 0 mm | - | - | - |
| 1777738668 | 25° C | 31% | 1016 hPa | 0 mm | - | - | - |
| 1777736851 | 25° C | 31% | 1016.2 hPa | 0 mm | - | - | - |
| 1777736251 | 24.44° C | 31% | 1016.3 hPa | 0 mm | - | - | - |
| 1777735044 | 25° C | 33% | 1016.6 hPa | 0 mm | - | - | - |
| 1777734436 | 25° C | 34% | 1016.7 hPa | 0 mm | - | - | - |
| 1777733836 | 25° C | 33% | 1016.6 hPa | 0 mm | - | - | - |
| 1777733228 | 25° C | 34% | 1016.8 hPa | 0 mm | - | - | - |
| 1777732620 | 25° C | 34% | 1017 hPa | 0 mm | - | - | - |
| 1777732019 | 25° C | 35% | 1017.2 hPa | 0 mm | - | - | - |
| 1777731414 | 25.56° C | 37% | 1017.3 hPa | 0 mm | - | - | - |
| 1777730802 | 25.56° C | 37% | 1017.4 hPa | 0 mm | - | - | - |
| 1777730194 | 25° C | 38% | 1017.6 hPa | 0 mm | - | - | - |
| 1777729590 | 25° C | 37% | 1017.7 hPa | 0 mm | - | - | - |
| 1777728990 | 24.44° C | 39% | 1017.8 hPa | 0 mm | - | - | - |
| 1777728390 | 24.44° C | 37% | 1018 hPa | 0 mm | - | - | - |
| 1777727786 | 24.44° C | 38% | 1018.1 hPa | 0 mm | - | - | - |
| 1777727178 | 23.89° C | 38% | 1018.2 hPa | 0 mm | - | - | - |
| 1777726574 | 24.44° C | 38% | 1018.3 hPa | 0 mm | - | - | - |
* Rain latest hour (hover to see other rain measurements)
** Current wind speed in m/s (hover to see current wind gust speed)